Wind_Speed
8 8 9 10 10 9 6 7 11 14 14 7 3 7 7 6 3 2 5 5 7 9 14 20 24 26 25 21 14 11 11 10 7 3 2 3 4 5 5 4 5 5 5 5 5 5 6 6 5 6 7 7 7 6 6 7 7 6 6 6 8 8 7 6 5 6 8 9 10 10 10 9 9 9 9 10 11 12 10 9 10 10 11 11 11 13
9 10 10 11 12 11 9 8 10 13 13 7 2 6 7 8 7 5 3 4 7 7 13 20 21 20 19 16 12 12 11 9 5 2 2 1 3 4 3 3 5 6 6 6 6 6 6 5 5 6 7 7 7 6 6 6 6 6 5 5 6 6 6 6 7 7 7 8 9 8 8 8 9 9 11 12 11 11 10 10 10 11 11 11 11 11
9 11 11 13 14 14 12 11 10 9 8 5 1 4 8 11 11 7 3 5 7 8 14 22 20 15 15 15 12 11 11 9 3 3 2 1 1 1 1 2 4 5 6 6 7 7 6 5 4 5 6 7 7 7 7 7 7 6 5 3 3 3 4 5 7 7 7 6 7 8 8 8 9 10 11 11 11 10 10 10 10 11 11 11 11 11
10 11 11 13 15 15 15 14 11 8 6 5 3 1 6 10 11 10 8 6 6 10 16 22 22 17 16 17 12 10 11 10 5 3 3 3 2 2 1 2 3 4 5 7 8 9 8 5 3 4 5 6 7 6 7 7 8 8 6 4 2 1 2 2 4 6 7 7 7 8 8 9 9 10 10 10 10 11 10 10 9 10 10 11 11 11
11 11 11 13 15 15 16 15 12 10 7 4 4 4 6 9 10 13 14 11 8 11 17 23 24 19 17 18 12 10 10 9 7 6 6 5 6 6 4 3 4 3 5 7 9 9 8 7 4 3 4 5 6 6 6 7 8 8 8 6 3 2 1 0 2 4 6 8 8 8 9 9 9 9 9 9 9 9 9 8 8 8 9 11 11 10
11 11 11 14 15 14 14 14 12 10 8 5 5 6 9 13 14 16 19 17 13 14 18 23 23 15 13 16 13 10 10 8 6 6 5 5 7 8 8 7 6 4 6 8 9 9 7 6 5 4 4 4 5 5 6 7 8 8 8 8 6 4 3 3 2 2 3 5 7 8 8 9 9 9 9 8 8 9 8 8 6 5 6 9 9 8
12 13 13 15 16 15 14 12 10 10 8 6 6 9 12 15 16 18 20 19 16 15 16 20 20 14 12 14 13 9 9 9 6 4 5 5 6 8 10 10 7 4 5 6 8 9 7 5 5 5 5 4 4 5 5 6 8 8 9 9 8 7 6 5 4 3 3 3 4 5 7 8 9 10 10 9 9 8 8 8 6 3 4 7 8 7
13 13 15 16 15 15 15 13 11 11 10 6 7 12 14 15 18 19 19 19 18 16 15 17 21 20 13 11 13 11 9 9 6 5 7 6 4 6 8 8 7 4 3 3 5 7 7 6 5 6 6 5 5 5 5 6 7 8 9 9 9 9 9 9 8 6 6 5 5 4 5 6 7 9 10 10 9 8 7 6 6 4 5 7 8 8
15 14 15 17 17 15 13 14 13 14 12 7 10 15 16 17 19 19 18 17 17 17 15 15 21 25 15 9 14 15 12 9 5 5 8 7 5 5 7 6 5 3 3 2 3 4 6 7 7 7 7 6 5 5 5 6 6 7 8 8 9 9 10 10 10 10 9 8 8 7 7 7 6 6 7 8 8 8 7 7 6 6 6 6 7 8
15 16 17 19 19 17 14 14 16 17 13 9 14 19 20 21 20 20 19 17 17 16 12 10 17 23 16 10 17 19 13 8 6 6 7 8 7 8 9 7 5 3 3 2 1 3 6 8 8 7 7 7 6 5 5 6 7 7 8 8 8 9 9 10 11 11 10 10 9 9 9 9 9 8 7 7 7 8 7 7 7 7 6 7 7 8
16 19 20 20 20 20 18 15 16 18 16 13 19 22 22 22 21 20 20 19 20 15 9 9 14 21 17 11 16 20 15 10 7 6 7 8 9 9 9 9 8 5 3 2 1 2 5 8 9 8 7 7 7 6 5 6 6 7 8 8 9 9 9 10 10 11 10 10 9 9 9 9 10 11 10 9 8 8 8 8 8 8 8 8 9 10
21 21 21 21 20 22 22 20 17 18 18 18 21 23 24 24 21 21 19 20 21 15 11 14 16 21 20 14 17 22 17 11 8 7 7 9 9 9 9 9 8 7 5 3 2 3 4 8 10 9 8 8 7 7 6 5 6 6 7 8 9 9 9 10 10 10 11 10 10 9 9 9 9 10 11 11 11 11 11 10 10 10 10 11 12 13
26 23 21 22 22 22 24 23 20 19 20 21 23 24 26 26 24 24 21 21 22 17 13 15 18 23 23 18 20 22 16 12 12 11 10 10 10 10 11 10 8 8 8 7 6 5 5 8 11 9 8 8 7 7 6 5 5 5 6 8 8 9 9 10 10 10 10 10 11 11 11 11 10 10 10 11 11 12 13 13 12 12 12 13 14 15
29 25 21 22 23 23 24 25 23 21 19 21 23 26 28 28 28 27 24 22 24 21 16 15 19 24 24 22 23 22 18 14 13 15 14 13 13 13 14 13 11 11 11 10 9 7 5 7 10 10 9 8 8 7 6 6 5 5 6 7 7 8 8 8 8 9 10 10 11 11 12 12 12 11 11 11 11 12 13 13 14 14 15 16 17 17
28 25 19 20 23 24 26 27 25 23 22 22 24 27 31 31 30 30 27 25 25 25 22 21 23 26 25 25 24 23 22 17 14 15 16 16 17 17 18 18 16 13 12 12 11 9 7 5 8 12 12 10 9 8 7 7 6 5 6 6 5 5 7 8 8 9 10 11 11 11 12 12 12 12 12 12 12 12 13 13 14 15 17 19 19 19
29 27 17 18 22 22 26 29 27 27 27 25 25 30 32 31 30 32 31 27 27 29 28 26 28 28 26 27 26 24 23 20 17 17 17 18 18 18 20 20 17 12 11 12 12 10 8 6 7 12 14 12 10 10 9 7 6 5 5 5 4 5 6 7 8 9 11 11 12 12 12 12 12 13 13 13 13 13 14 14 15 16 17 18 18 17
31 29 21 19 20 19 22 27 28 30 30 27 27 29 28 27 29 33 34 30 29 32 32 29 29 29 28 29 28 26 24 23 22 21 22 22 20 19 19 18 16 14 12 12 12 11 10 9 9 12 15 14 12 12 11 8 6 5 4 5 5 5 5 4 5 8 10 11 12 13 14 14 14 14 14 14 14 14 15 16 16 17 17 17 18 18
32 32 27 21 18 17 20 26 30 32 32 31 32 27 22 24 28 32 35 34 33 34 34 30 29 29 30 32 30 27 26 26 24 25 25 24 23 22 19 17 18 18 15 14 14 14 13 13 13 13 14 13 13 13 12 9 7 6 5 5 5 5 5 4 5 6 8 10 12 14 15 15 15 16 16 16 16 15 15 16 17 18 17 17 19 19
32 35 34 27 21 18 19 26 31 33 33 33 32 28 25 26 30 32 35 36 36 36 35 31 30 30 31 32 33 30 27 27 27 27 27 26 25 25 23 22 21 20 19 17 17 16 16 16 16 14 13 13 14 14 12 10 8 7 6 5 5 5 5 6 6 7 9 10 11 13 15 16 16 16 17 18 18 17 17 17 18 18 19 19 20 20
32 36 40 35 26 20 22 29 31 30 31 31 30 31 32 31 31 32 35 37 36 37 36 34 32 31 29 29 32 31 29 29 31 31 30 30 29 27 25 22 20 20 21 20 18 18 17 17 16 15 15 15 15 14 13 11 10 8 7 6 6 6 7 7 8 9 11 12 12 13 15 16 17 17 18 19 19 19 19 19 19 19 20 22 22 20
35 37 41 39 33 28 28 29 29 29 31 31 32 33 33 33 34 34 36 38 39 38 38 37 35 31 26 26 29 29 29 32 34 34 33 33 30 25 22 21 20 21 22 20 19 19 18 18 18 18 18 17 17 16 14 13 11 10 10 9 8 7 8 8 10 10 12 13 13 14 15 16 17 18 19 20 20 21 21 22 22 21 22 23 22 19
43 43 45 44 40 38 35 30 28 30 32 34 36 35 33 33 35 37 38 39 40 40 39 39 38 33 27 26 28 26 28 32 33 32 32 31 28 24 23 23 23 22 21 20 20 20 19 19 20 19 18 17 18 17 16 14 12 11 11 11 10 10 9 10 11 11 12 13 14 15 15 16 17 18 19 21 22 23 24 24 24 24 25 25 23 22
48 49 49 49 44 42 42 38 35 34 34 36 38 39 38 36 37 39 40 39 39 43 42 40 40 37 31 28 29 27 28 31 32 31 30 30 28 27 26 26 25 24 23 23 22 20 20 20 19 18 18 17 18 17 15 13 12 13 13 13 13 12 11 11 11 12 13 14 15 16 17 17 18 19 20 22 23 25 26 27 27 27 27 26 26 26
50 50 51 52 50 48 47 48 43 38 38 40 41 42 43 43 41 40 40 38 39 42 43 43 44 41 34 31 31 31 31 32 33 32 31 31 31 31 29 26 25 25 25 23 21 19 20 20 20 19 19 18 17 15 13 13 14 15 15 15 15 14 13 12 12 13 14 15 16 17 18 19 19 20 21 23 24 26 27 28 28 29 28 28 28 28
54 54 55 55 55 53 51 51 50 42 38 39 43 44 45 46 44 41 40 40 42 42 42 45 47 45 39 35 35 36 35 33 34 33 32 33 34 34 31 27 25 24 23 22 20 19 21 22 21 20 18 17 16 14 14 16 18 18 17 16 16 15 14 14 14 14 15 15 16 17 18 19 20 21 22 24 24 25 26 27 28 28 29 30 29 28
58 58 59 59 58 56 53 52 53 49 42 40 43 47 48 47 44 43 42 45 47 47 45 47 48 47 44 40 37 39 38 35 34 34 33 33 34 34 33 31 28 26 24 22 22 23 25 25 23 21 20 18 16 16 17 20 21 20 19 19 18 17 16 16 16 16 16 16 17 18 18 19 20 21 23 24 25 26 27 28 28 28 28 29 28 26
63 62 61 61 61 60 56 55 55 54 52 49 46 47 51 51 47 45 46 48 50 50 50 49 47 46 47 44 41 41 40 37 35 35 34 34 34 34 34 34 31 28 26 26 27 27 26 25 24 22 21 20 19 20 23 24 23 22 21 20 19 18 16 16 17 18 18 18 19 18 18 19 20 21 24 26 27 27 28 28 28 28 27 27 27 25
66 66 65 65 63 61 59 59 59 60 60 58 53 50 52 55 55 52 50 51 51 52 53 49 45 45 47 47 45 44 42 40 38 36 36 37 36 35 35 35 33 31 31 32 32 30 27 26 24 23 23 22 22 24 26 26 25 23 21 19 19 19 17 16 16 18 19 20 20 20 19 18 19 22 25 28 28 27 27 27 27 27 25 24 25 25
66 68 69 69 67 64 62 63 63 64 63 61 57 54 53 54 57 58 57 55 54 55 54 50 48 47 46 47 49 48 45 43 40 38 38 39 39 37 36 37 37 37 36 35 33 31 29 28 25 24 24 24 24 27 28 27 25 23 21 19 20 20 19 16 15 17 20 22 21 21 20 19 19 21 25 27 28 26 25 25 24 23 22 21 23 25
66 68 69 71 71 68 67 66 66 65 64 61 58 57 55 54 55 58 59 58 58 59 56 53 51 49 47 48 51 51 48 45 43 42 42 42 41 39 39 40 42 41 40 38 35 32 30 29 28 27 26 24 25 28 29 27 24 23 22 22 22 22 21 19 16 16 20 23 23 22 21 20 20 21 23 25 26 24 23 23 20 18 19 21 22 24
65 66 68 71 72 70 69 70 69 66 65 64 63 60 57 55 55 57 58 59 62 63 60 55 51 49 49 50 51 51 49 46 44 45 46 45 43 43 43 44 46 44 41 39 37 34 32 30 30 29 27 26 27 30 31 28 25 24 24 25 25 24 22 20 19 18 21 24 24 23 22 22 21 20 21 23 24 22 21 21 19 17 19 21 22 24
65 66 68 71 73 71 69 71 70 67 65 68 68 64 62 60 57 57 58 60 62 64 62 58 53 50 52 53 52 52 51 48 46 46 47 47 46 47 46 47 50 48 44 41 39 36 34 32 32 31 30 30 31 32 32 30 27 26 27 27 27 26 24 22 20 21 22 24 25 24 23 23 23 21 20 21 22 20 19 19 19 19 20 20 20 21
66 67 68 71 75 74 71 70 70 68 68 70 69 65 64 64 61 60 60 60 61 63 62 58 52 51 55 55 54 54 54 53 50 49 50 50 49 48 48 49 51 50 46 44 42 40 38 35 34 34 33 33 34 33 33 32 30 29 28 29 29 28 27 24 22 22 23 26 27 26 24 23 23 22 20 20 20 20 18 19 20 21 22 22 21 20
63 65 66 69 74 76 74 73 73 74 74 72 67 64 64 64 63 63 62 60 60 61 62 60 55 54 55 56 55 54 54 55 54 53 52 53 52 51 50 51 51 51 48 47 46 44 41 38 36 35 35 35 35 34 34 34 34 32 31 30 31 30 30 28 25 23 24 26 28 28 26 24 23 22 21 19 19 19 19 20 21 23 23 24 24 22
55 57 61 64 68 71 72 72 74 78 79 73 67 66 66 64 62 63 63 61 60 60 60 61 60 58 57 57 56 55 55 56 57 56 55 56 56 56 55 55 55 54 52 51 50 48 44 40 38 36 35 36 36 35 34 35 35 35 34 33 32 32 32 31 28 26 25 26 29 29 27 24 23 22 21 20 19 19 20 20 22 23 24 24 24 23
51 51 52 55 59 60 62 65 69 73 76 75 71 70 69 65 63 64 65 63 60 59 59 59 59 59 60 59 58 57 58 58 57 57 55 54 56 58 58 59 60 59 56 54 54 52 47 42 40 39 37 38 38 36 35 36 37 37 37 36 35 34 34 34 32 29 27 27 29 30 28 25 24 23 21 20 19 19 20 21 22 23 24 24 24 23
50 50 50 51 53 52 54 58 62 65 68 72 72 72 72 69 65 63 65 65 62 59 59 59 59 60 60 59 59 59 61 61 59 57 54 51 52 56 59 61 61 60 58 55 55 55 51 44 42 42 41 40 39 38 37 37 39 39 39 38 38 36 36 36 35 33 30 29 30 31 30 27 25 23 20 18 18 18 20 21 22 23 24 24 24 24
46 49 50 51 51 50 51 55 58 62 64 65 66 68 71 73 70 63 62 65 66 63 61 60 58 58 57 58 60 60 62 62 60 56 54 52 53 55 59 62 63 61 58 55 54 54 53 50 47 46 43 41 39 39 39 40 41 41 41 40 39 38 37 37 37 36 34 32 31 32 32 29 27 24 21 18 17 17 18 20 21 21 22 23 24 25
43 45 47 49 50 50 51 53 55 59 60 57 57 61 65 69 71 66 62 62 62 62 63 61 57 55 54 55 58 59 61 61 57 53 53 54 54 54 56 59 64 65 63 60 58 57 55 53 51 49 45 41 41 41 42 43 42 42 43 42 40 40 39 38 38 38 37 35 34 34 34 31 28 25 23 21 19 19 18 18 18 19 20 22 24 26
42 42 43 45 46 47 50 51 51 54 54 50 50 54 57 60 64 65 63 58 53 54 59 59 57 56 55 56 57 57 57 56 55 54 56 57 56 55 52 52 57 63 65 64 62 63 62 58 54 51 48 45 43 43 44 45 44 44 44 43 42 41 41 39 39 39 39 38 36 35 35 33 29 26 25 24 23 22 21 19 18 18 19 21 24 27
40 41 42 43 43 43 46 47 49 51 49 45 46 50 52 54 59 63 62 56 50 51 53 53 54 55 55 55 57 56 55 56 57 59 61 61 59 57 55 52 52 55 58 59 58 60 63 63 58 53 51 47 43 42 43 45 46 45 45 44 44 42 42 40 40 40 41 40 38 36 35 34 32 29 28 28 28 26 24 22 20 19 19 20 22 25
39 40 41 42 41 42 42 43 47 48 43 40 44 48 51 55 57 58 57 54 53 53 53 52 52 52 51 50 51 52 53 54 56 58 59 59 59 58 57 56 55 54 54 56 56 55 56 58 57 52 48 45 42 41 42 44 46 47 47 46 45 44 43 41 41 41 41 41 40 38 37 36 34 32 31 31 30 29 27 25 23 22 21 21 22 23
40 39 39 39 40 42 42 42 43 43 38 37 40 44 49 54 55 53 54 56 56 54 54 54 51 49 50 49 48 48 48 48 50 53 54 55 57 58 57 56 57 57 54 54 55 54 51 51 51 49 46 44 43 42 42 44 46 48 48 47 45 44 43 42 41 42 42 42 41 40 38 37 37 36 34 33 33 31 29 27 26 25 25 24 24 23
40 39 38 37 38 42 44 42 39 38 38 39 39 38 42 47 49 51 55 58 58 55 54 52 47 43 44 46 46 46 45 45 46 48 49 50 49 49 50 50 51 53 54 53 54 55 54 52 50 48 47 46 45 44 44 45 46 48 49 48 45 44 43 42 42 43 43 43 42 41 40 39 39 38 37 36 35 32 30 29 29 29 29 28 27 27
40 39 38 36 36 39 43 41 36 35 38 41 38 37 39 40 41 45 51 56 58 57 53 51 47 41 39 41 42 43 42 40 41 43 44 46 45 43 42 41 41 43 47 49 50 52 54 53 52 50 48 48 48 48 48 48 48 48 48 47 45 44 44 43 43 43 44 44 43 42 41 40 40 40 38 37 36 34 32 31 31 31 31 31 30 30
38 39 40 38 35 36 39 38 34 32 35 39 39 38 39 39 38 39 43 46 51 53 53 52 49 46 44 42 41 43 42 38 36 37 38 41 45 44 41 40 42 45 47 49 50 51 52 52 51 49 49 50 50 50 49 48 48 47 46 46 45 45 45 45 44 44 45 45 45 44 42 41 41 40 39 38 37 36 34 32 31 31 31 32 32 33
39 39 40 40 36 33 34 35 35 33 31 34 38 38 38 39 38 38 38 38 40 45 50 51 50 49 49 46 43 45 45 39 35 35 36 38 42 44 44 44 45 47 48 49 51 51 50 50 49 48 49 50 50 49 47 46 46 47 46 46 46 46 46 45 45 46 46 46 45 44 44 43 42 42 41 40 39 38 36 34 32 32 32 32 33 34
42 41 40 40 36 31 28 29 34 36 33 31 33 35 36 36 36 37 38 38 38 39 43 46 47 48 50 49 46 46 47 44 41 40 39 39 40 40 41 42 43 43 44 45 46 46 46 46 47 47 47 47 48 47 45 44 45 47 47 46 46 46 46 46 45 46 46 46 46 45 45 44 44 43 42 41 40 38 37 36 34 34 33 33 34 36
43 42 40 40 37 32 28 27 29 33 33 31 30 30 30 30 30 31 33 36 39 40 39 41 44 45 45 46 47 48 47 44 42 42 42 42 42 41 41 43 44 44 44 44 43 43 43 44 45 46 44 42 42 43 43 44 45 46 46 46 46 46 47 47 47 46 45 46 46 46 45 45 44 43 42 41 39 38 38 37 36 35 34 35 36 37
41 41 41 41 38 33 29 27 26 27 29 29 28 26 25 24 24 25 26 30 35 37 35 35 39 42 43 43 45 48 47 40 35 35 38 40 42 43 43 43 41 41 41 42 42 43 44 44 45 45 43 41 40 41 44 46 47 47 46 46 47 47 47 47 47 46 46 45 45 45 45 45 44 43 42 41 41 40 40 39 39 37 37 37 37 38
40 40 40 40 38 32 28 26 26 26 28 28 27 25 24 24 25 26 25 26 27 30 32 34 35 37 38 40 44 50 52 48 43 40 39 39 40 41 39 38 37 38 39 40 42 43 44 45 46 47 47 46 45 43 44 46 49 49 48 47 47 48 47 46 46 46 47 47 46 46 45 45 44 43 42 42 41 41 41 41 40 40 39 39 39 40
Wind_Direction
295 297 291 283 277 273 262 253 261 275 282 279 113 120 140 140 134 212 241 274 319 318 303 308 313 311 307 304 311 337 352 0 7 12 16 355 342 351 348 351 2 18 29 20 8 15 24 19 10 12 7 0 4 8 1 345 332 333 347 0 10 19 38 63 89 127 162 178 190 197 194 194 199 208 220 222 222 224 225 228 233 240 247 252 256 256
293 299 299 291 283 278 268 253 259 273 277 278 121 129 133 135 164 218 249 296 316 295 282 296 302 300 301 304 319 334 338 350 10 87 105 337 324 342 348 352 357 0 10 24 22 19 28 27 23 24 17 9 11 17 15 4 350 340 344 358 12 23 40 72 100 123 149 167 180 189 194 202 208 211 215 218 223 230 236 239 239 242 246 249 250 252
285 291 294 293 287 281 272 260 257 261 272 301 25 139 151 164 189 219 259 311 326 311 289 291 291 292 299 303 316 322 317 325 347 122 105 352 343 20 25 352 353 1 2 16 26 28 30 29 30 27 18 7 6 17 18 10 6 359 352 355 6 24 42 71 96 116 136 161 182 194 204 210 211 209 212 221 230 237 242 243 243 243 243 239 242 250
272 277 278 279 278 272 263 260 262 264 278 307 318 201 171 184 206 219 231 269 312 305 293 287 285 286 283 284 301 311 304 309 325 39 33 22 72 89 60 358 1 5 356 4 14 19 23 22 28 21 12 2 355 9 20 8 5 4 360 353 333 345 29 70 96 114 127 148 175 191 202 207 209 213 221 232 239 241 245 248 248 246 238 232 238 245
269 273 272 270 269 262 258 259 263 265 270 278 281 263 203 201 215 210 219 243 259 270 277 276 278 281 274 275 291 305 303 311 335 4 13 26 58 68 63 46 36 10 348 359 2 2 11 16 18 6 356 358 347 354 15 8 2 1 1 359 341 305 284 220 130 135 137 145 159 176 192 199 204 211 223 236 242 245 247 248 251 249 238 231 232 231
284 282 277 272 270 264 259 255 256 261 266 264 264 259 227 224 227 214 219 236 242 243 254 265 271 267 263 274 288 298 305 319 336 1 12 23 43 56 67 65 53 24 353 354 351 348 2 14 17 12 356 355 345 344 1 2 358 357 358 358 353 337 300 266 231 196 169 160 161 168 177 184 188 193 202 216 225 232 235 237 247 251 236 227 218 211
293 286 280 276 274 272 266 257 256 263 268 270 261 250 241 241 241 230 229 241 251 247 244 256 266 260 254 273 289 299 304 312 325 353 359 6 35 53 66 66 58 37 2 349 341 339 352 10 16 11 359 350 343 341 352 355 352 352 353 353 351 347 337 316 289 262 240 220 197 184 182 182 180 180 185 196 208 217 223 229 239 237 211 208 202 196
288 286 285 281 274 271 272 270 267 265 267 279 272 256 252 256 254 248 244 248 257 261 253 253 262 268 268 271 281 288 288 292 307 324 323 336 23 43 47 55 61 60 34 359 334 332 342 355 1 359 351 342 334 334 340 345 344 343 346 348 347 346 344 338 329 316 297 277 263 245 225 207 195 185 182 187 195 204 210 216 221 206 193 198 199 201
282 286 285 284 281 278 277 275 270 262 258 260 260 255 254 257 257 257 258 257 261 264 259 255 260 267 272 259 254 262 268 269 279 296 304 318 349 11 13 27 50 64 70 38 336 326 333 338 343 349 346 334 324 323 325 327 330 332 335 338 341 342 341 340 339 334 326 313 297 283 271 257 240 220 203 198 201 203 202 206 213 204 195 201 205 209
278 282 280 284 290 290 283 275 270 265 258 239 239 248 253 260 264 262 259 260 263 260 254 257 262 264 262 240 243 255 263 262 266 284 295 307 323 343 350 350 4 36 69 69 354 322 323 324 331 342 340 328 320 320 320 317 316 319 325 328 329 331 335 336 337 336 332 326 318 305 292 280 269 258 243 228 223 222 215 212 219 216 207 209 214 214
266 271 276 281 287 288 282 272 266 266 263 245 241 248 255 262 268 264 258 259 262 261 264 269 265 263 258 239 245 257 261 262 265 278 295 308 319 332 335 333 338 349 11 51 68 340 321 315 321 328 323 317 317 320 324 320 311 307 311 317 320 321 325 330 333 334 331 326 320 313 303 292 282 272 264 252 243 241 237 230 228 228 221 220 223 223
263 265 273 277 279 282 282 275 264 260 258 252 250 254 256 258 261 259 254 256 259 260 272 277 269 264 261 249 248 255 257 262 272 281 298 308 314 319 321 320 322 324 327 338 4 2 330 310 311 314 308 306 313 319 323 321 312 305 300 302 309 316 322 326 328 328 326 321 314 306 301 297 292 286 278 269 259 253 249 245 240 237 232 230 231 231
270 269 269 272 273 275 278 277 271 261 255 254 257 260 261 261 262 261 257 256 259 259 266 278 272 262 259 253 252 257 259 261 270 278 287 295 301 305 307 308 309 311 313 316 322 332 322 301 298 299 298 300 305 313 316 315 318 320 313 306 307 313 320 322 319 315 311 311 310 306 301 298 294 291 288 281 271 263 257 253 248 244 240 238 237 236
274 271 268 270 271 270 271 272 270 265 257 255 258 260 262 262 262 263 262 259 258 257 257 263 261 257 257 252 252 258 261 256 257 267 275 280 284 291 297 300 301 302 304 305 306 307 300 288 290 292 291 292 295 302 309 316 330 341 337 331 322 313 310 307 302 298 295 298 301 301 300 298 294 288 283 279 275 270 265 258 252 248 244 242 241 240
275 272 269 267 266 266 266 265 265 261 253 246 249 253 256 257 260 262 262 260 259 257 252 248 250 256 259 256 253 253 255 253 252 257 264 269 273 279 285 289 291 293 295 295 294 291 282 273 284 288 287 286 290 296 304 316 335 346 342 341 335 312 295 287 284 287 289 289 289 288 288 289 289 286 281 276 272 270 269 265 257 250 245 243 244 245
274 275 276 266 262 262 261 261 261 257 253 247 245 249 254 258 262 263 262 259 258 256 251 246 247 253 258 258 256 252 251 253 254 255 257 262 267 272 277 281 283 283 283 284 282 277 272 264 266 274 278 282 287 289 292 303 326 339 335 335 339 329 308 291 288 292 290 286 284 283 282 279 278 277 274 272 268 266 265 264 260 257 253 251 250 249
273 274 271 265 267 266 259 256 255 254 254 250 246 247 255 262 262 261 261 259 257 256 252 247 247 251 256 257 255 252 252 255 258 261 261 263 267 270 272 274 278 281 283 281 278 275 272 267 260 262 270 278 282 281 283 292 306 313 316 323 336 346 343 322 304 296 286 279 277 279 280 279 277 272 268 266 264 262 260 259 258 259 260 258 255 251
278 274 267 264 267 264 254 249 248 249 250 251 253 253 253 257 258 257 256 255 254 255 255 251 249 250 252 255 255 252 251 254 258 263 265 266 268 271 272 275 279 284 285 276 272 274 275 274 271 266 267 275 277 277 280 287 293 290 288 295 310 329 341 336 316 299 285 274 272 273 275 276 275 273 271 268 265 262 259 258 258 258 258 258 257 255
280 276 270 265 262 256 246 244 244 247 250 252 255 255 250 249 253 255 255 254 254 256 257 254 251 250 249 252 255 254 253 254 255 257 261 264 266 269 274 277 279 278 274 270 269 273 276 277 276 270 268 272 275 275 277 281 283 281 275 272 281 298 311 312 306 299 292 283 276 274 273 271 270 268 269 270 269 266 262 259 259 258 258 258 256 255
272 273 271 268 264 251 235 238 245 247 250 252 251 249 248 248 249 251 254 254 254 254 255 253 249 249 251 251 253 254 255 256 256 255 255 257 261 266 268 268 265 262 264 268 272 275 276 273 270 269 270 274 275 274 275 278 279 278 276 270 271 283 293 297 298 296 292 289 283 279 275 271 268 266 266 266 266 266 264 262 261 260 260 260 256 252
259 264 268 269 266 254 239 238 246 248 246 248 250 249 247 248 250 251 252 253 253 252 254 254 252 251 253 252 251 251 253 255 257 257 256 256 259 262 260 254 247 248 255 260 261 263 265 264 264 267 271 274 274 275 276 276 276 276 276 275 273 277 285 292 297 296 292 289 285 283 279 272 268 265 265 263 262 261 261 260 260 259 259 261 258 254
255 260 265 268 267 265 260 248 240 242 243 244 248 250 247 244 245 247 248 251 254 254 254 254 255 257 258 252 248 248 252 255 258 259 259 259 259 255 252 251 249 250 254 254 251 251 255 260 265 269 272 272 273 274 272 271 272 272 272 272 270 271 278 287 293 295 293 290 287 285 282 277 271 266 264 262 261 259 258 258 258 257 257 259 261 262
251 255 259 262 263 267 268 258 241 234 236 239 241 245 248 245 241 242 246 251 256 256 254 251 253 259 260 255 249 247 251 257 259 260 261 262 260 257 255 253 251 251 252 251 249 250 255 259 262 265 267 269 270 269 269 272 275 274 271 269 267 269 277 288 293 294 292 290 289 288 286 284 281 276 270 265 261 260 258 256 256 255 255 256 259 260
248 249 251 254 258 261 264 264 255 237 228 234 237 238 242 246 244 243 246 250 252 252 250 249 254 260 260 256 252 250 252 256 258 259 262 265 266 265 263 256 249 245 245 247 249 252 257 259 257 256 258 264 270 275 282 286 282 275 270 267 268 271 280 290 293 292 291 290 288 288 288 288 288 286 282 274 267 262 260 259 258 257 254 252 253 255
248 249 250 251 254 256 258 261 259 247 234 234 235 235 238 243 244 244 245 245 245 245 243 245 254 260 259 254 252 254 254 254 255 257 261 265 266 267 266 262 258 253 247 249 254 259 261 260 259 260 263 270 278 285 286 280 274 271 270 270 272 277 282 288 289 288 288 287 286 286 288 290 291 291 289 283 275 268 264 263 265 266 263 254 248 250
248 248 249 250 251 253 254 255 254 250 244 238 233 232 235 238 239 240 241 241 241 240 239 244 251 257 257 253 250 254 256 253 253 257 259 261 262 263 265 267 267 264 258 256 262 267 264 262 265 269 273 276 279 278 271 264 262 263 265 269 274 277 281 285 288 289 288 287 284 284 288 291 293 294 291 286 282 276 270 266 264 269 270 258 246 243
247 247 247 247 248 249 251 253 250 248 247 245 238 233 232 233 234 235 236 239 241 241 240 245 250 253 255 252 247 249 254 254 254 257 256 257 258 258 261 263 263 261 258 257 261 264 262 260 262 267 271 272 271 265 259 257 256 255 256 261 265 268 271 278 285 289 289 288 286 285 288 292 294 294 292 290 289 286 280 273 268 269 272 263 249 241
246 247 247 246 246 247 249 252 251 248 247 246 245 241 236 233 233 234 235 238 241 243 244 247 249 250 251 250 246 246 249 251 254 255 254 254 255 256 257 258 257 254 252 254 258 261 260 256 254 257 262 264 262 257 252 251 253 252 253 256 258 261 263 269 278 284 284 283 284 287 290 292 293 296 297 294 294 293 287 280 274 270 268 263 252 246
244 245 246 246 246 247 248 250 250 249 247 245 247 250 247 240 236 236 237 239 241 244 247 248 248 249 250 248 247 246 247 248 250 252 252 253 254 254 255 255 254 252 252 255 257 260 260 257 254 254 255 256 257 256 252 250 253 256 257 256 256 259 263 269 275 279 281 281 283 286 288 290 294 300 302 298 296 295 288 280 277 270 261 257 251 247
244 245 245 246 247 247 248 249 248 246 244 244 248 251 250 246 242 239 238 240 241 244 247 249 249 251 249 245 245 246 245 246 247 246 248 250 252 254 256 256 254 252 253 257 259 257 257 257 256 256 257 256 256 257 256 255 256 260 262 260 259 261 266 272 277 277 279 282 285 286 287 290 297 305 308 302 296 294 286 277 276 270 260 259 256 253
246 245 245 246 247 247 248 249 247 245 245 245 248 249 248 247 246 243 240 240 241 243 246 248 251 253 250 245 243 244 245 244 245 245 245 246 248 250 253 256 256 256 256 260 260 257 255 256 257 258 261 259 256 257 259 260 261 262 262 262 262 263 264 270 275 276 276 280 283 284 286 293 301 308 310 304 297 293 286 276 272 270 266 266 264 259
248 247 245 246 247 245 244 246 246 245 246 247 246 246 247 247 247 247 245 242 242 243 244 248 252 254 252 246 241 243 247 246 245 245 244 242 243 244 246 251 256 259 260 262 262 259 256 255 256 258 261 261 259 258 260 261 262 261 260 261 262 263 264 266 271 275 277 280 281 281 285 293 300 307 311 305 296 291 285 275 268 267 267 268 266 262
250 251 249 249 250 247 241 243 245 245 246 246 242 243 246 246 245 247 247 244 242 242 244 248 253 253 253 249 243 242 247 249 250 249 244 240 241 243 244 248 253 256 258 259 260 259 257 255 253 253 258 260 259 259 260 262 262 260 259 261 262 264 266 266 268 273 277 280 280 280 283 290 296 303 308 305 296 288 281 273 267 265 265 265 266 266
251 253 252 252 254 251 245 246 250 250 248 244 239 242 246 246 244 244 245 245 243 242 245 249 251 250 251 251 250 249 249 250 254 256 247 240 240 244 245 246 249 252 254 254 255 256 255 253 251 251 255 258 258 258 261 263 263 262 260 260 262 265 267 267 266 269 273 276 277 277 279 285 291 298 304 304 294 285 278 271 266 265 264 264 266 267
256 255 254 253 255 255 252 252 255 253 248 242 239 240 243 244 244 243 243 244 244 244 247 250 252 251 250 251 253 254 252 251 254 258 254 245 242 244 245 246 247 250 252 253 253 254 252 248 247 250 254 257 258 258 261 262 263 264 263 261 261 263 265 266 266 266 269 271 273 273 274 279 285 292 300 301 293 283 277 270 266 265 264 264 266 268
262 261 259 256 256 257 255 255 257 256 249 243 240 240 240 243 246 245 243 242 242 245 248 250 252 252 252 252 253 254 253 252 252 255 255 251 248 246 246 247 249 250 251 252 252 252 249 244 244 250 254 257 258 258 259 260 260 262 263 262 261 261 263 265 266 266 267 269 270 270 269 273 280 287 294 295 291 285 279 274 271 269 266 263 263 265
263 263 263 262 261 261 260 258 259 260 254 245 241 241 241 243 245 248 247 243 240 244 249 250 251 252 252 252 253 253 252 252 252 253 253 254 254 251 249 248 250 251 250 249 250 252 251 246 246 251 256 257 258 258 258 259 259 260 261 260 260 259 260 263 265 266 266 267 268 267 265 267 273 280 286 289 290 288 285 281 278 275 271 266 264 266
264 263 263 265 264 264 265 263 261 263 258 247 241 242 244 245 245 248 251 248 243 243 248 249 250 251 252 252 252 251 250 250 251 253 253 256 258 256 253 251 251 252 252 251 251 252 252 250 250 254 257 256 257 259 258 258 259 260 260 259 258 257 258 259 262 264 265 265 265 264 263 264 268 273 279 284 288 289 289 288 286 282 279 274 270 269
264 263 263 266 266 265 268 267 265 265 262 252 247 247 248 248 247 248 252 251 245 243 245 248 252 253 254 255 254 252 250 249 251 253 254 256 258 257 254 252 250 251 252 254 256 255 253 251 252 254 255 255 257 259 258 257 258 259 260 259 257 256 255 256 259 262 264 264 264 263 262 261 263 268 273 279 283 287 292 297 295 289 284 279 274 271
263 262 261 264 265 266 268 268 268 268 265 259 255 254 253 251 249 249 250 248 246 247 245 246 252 255 255 256 257 255 253 251 253 255 255 256 256 255 254 254 252 251 251 254 257 257 255 253 253 254 253 254 257 259 257 256 256 256 257 258 256 254 253 254 256 259 262 263 263 263 261 259 258 261 267 271 276 282 290 298 298 292 288 284 280 275
265 263 261 261 263 263 265 268 269 269 267 262 259 258 256 252 248 247 247 245 249 253 248 245 249 252 252 253 254 255 256 254 254 256 256 256 254 253 254 255 255 254 253 252 254 257 256 253 253 254 253 253 256 256 254 254 254 254 255 255 255 253 252 252 254 256 259 262 262 261 260 257 254 256 260 265 270 276 282 289 293 293 292 292 289 285
269 266 262 260 261 262 263 267 268 267 266 262 257 255 253 251 249 248 247 246 250 253 251 248 247 247 247 249 250 251 254 254 254 255 256 255 252 251 253 256 257 257 257 254 254 257 256 251 250 250 250 251 253 251 250 251 253 254 254 253 253 253 251 250 252 254 256 259 260 260 259 256 252 252 256 261 265 270 275 281 287 290 292 293 295 294
269 268 264 260 261 262 263 265 267 267 266 260 254 252 251 251 250 250 247 246 247 249 251 250 249 248 249 251 252 253 254 255 256 257 257 256 253 252 253 256 257 258 258 257 255 254 251 246 245 246 248 251 252 250 250 251 252 253 255 253 252 252 250 250 251 253 254 256 257 258 258 256 251 250 253 258 262 266 271 276 281 285 290 293 295 295
267 268 267 265 264 264 263 263 265 267 265 259 255 255 254 252 251 250 248 247 247 249 250 249 248 251 254 253 254 254 254 256 258 258 258 256 254 253 254 256 257 256 256 256 254 251 248 246 247 249 250 252 253 252 252 253 253 253 254 254 252 251 249 249 250 252 253 255 256 256 256 255 252 251 254 257 260 263 267 270 275 279 284 290 294 296
265 266 266 265 266 266 263 261 265 266 259 254 255 257 255 253 253 250 248 248 248 251 252 249 248 251 254 253 252 251 251 254 257 258 259 255 252 252 253 251 249 248 248 248 249 248 248 250 251 252 252 252 252 252 253 254 254 253 253 252 251 250 249 249 249 251 252 253 254 254 255 255 252 252 254 257 259 261 264 267 271 275 280 285 290 294
262 265 264 261 264 268 263 258 263 267 258 252 255 257 253 252 254 252 249 248 250 253 254 252 251 252 253 253 253 250 249 253 256 256 256 251 247 248 248 243 240 242 243 245 247 249 250 252 253 252 252 252 252 251 251 251 252 251 250 250 249 249 249 250 250 250 251 252 253 253 254 253 251 250 253 256 258 261 263 266 270 274 278 283 287 291
262 264 262 259 261 267 265 257 257 263 261 256 258 257 252 253 255 253 249 247 247 249 250 249 249 250 250 250 251 249 246 248 251 251 251 249 244 243 243 240 239 242 245 247 248 250 250 251 251 251 251 252 251 250 249 249 248 247 247 248 248 249 249 250 250 251 251 252 253 253 253 252 250 249 252 256 259 262 265 268 271 274 278 282 286 289
262 261 260 259 258 260 266 264 257 255 256 257 259 255 251 252 254 251 247 245 243 245 246 244 243 245 247 247 246 243 242 243 245 245 249 251 246 240 238 240 242 244 248 249 250 251 251 251 251 251 251 251 250 248 247 246 246 247 246 246 247 248 248 248 249 251 251 252 253 252 253 252 250 249 252 256 259 263 266 268 271 275 278 282 286 289
261 260 258 257 254 252 261 266 260 253 252 256 259 256 250 249 250 250 249 247 244 243 242 240 238 239 242 242 239 237 238 242 246 246 246 247 246 243 244 247 250 252 253 254 253 253 253 253 251 249 248 250 250 248 247 247 247 246 246 246 246 246 247 248 249 250 251 252 253 253 253 252 250 250 253 256 259 262 265 268 272 276 279 283 286 289
260 259 256 254 251 249 255 262 260 254 251 251 254 253 247 245 248 249 251 250 246 242 239 238 238 238 239 238 236 235 235 236 239 243 242 241 243 247 249 251 253 254 255 254 253 252 251 250 249 248 248 251 253 252 250 250 249 248 248 247 245 244 245 247 249 251 251 252 253 254 254 253 251 251 254 257 259 262 265 268 272 276 280 284 287 289
260 255 253 252 249 246 250 258 259 256 250 246 248 251 248 245 246 246 245 242 239 235 233 233 235 238 240 240 239 238 238 237 237 242 244 242 241 243 244 245 248 252 254 254 254 253 253 252 252 251 251 253 257 257 253 250 251 252 251 248 244 243 244 247 249 251 252 253 253 253 253 252 251 251 254 257 260 263 266 269 273 277 280 283 286 288
Height
5831 5831 5831 5830 5829 5829 5828 5828 5829 5828 5828 5827 5825 5823 5823 5825 5826 5826 5825 5825 5824 5824 5824 5824 5824 5824 5822 5822 5822 5821 5820 5820 5821 5822 5822 5822 5822 5822 5821 5818 5817 5816 5816 5816 5815 5814 5813 5813 5813 5812 5811 5811 5811 5811 5810 5810 5810 5809 5808 5807 5805 5804 5803 5803 5803 5804 5805 5807 5808 5809 5810 5811 5812 5813 5814 5816 5817 5818 5819 5820 5821 5823 5824 5825 5826 5826
5831 5830 5830 5830 5829 5828 5828 5828 5828 5827 5827 5827 5825 5823 5824 5825 5826 5826 5825 5824 5823 5823 5824 5824 5825 5824 5822 5821 5820 5819 5819 5819 5820 5821 5821 5821 5821 5821 5820 5818 5816 5815 5815 5814 5814 5813 5812 5812 5812 5811 5811 5811 5811 5810 5809 5809 5809 5808 5808 5807 5805 5804 5804 5803 5803 5804 5805 5806 5807 5808 5810 5811 5812 5813 5814 5815 5816 5817 5818 5819 5820 5821 5822 5823 5824 5824
5830 5830 5829 5829 5829 5828 5827 5827 5827 5826 5825 5825 5824 5824 5824 5824 5825 5825 5825 5823 5822 5822 5823 5823 5823 5823 5821 5819 5818 5818 5818 5818 5819 5819 5820 5821 5821 5820 5819 5817 5816 5815 5814 5813 5812 5812 5811 5811 5811 5811 5810 5810 5810 5809 5809 5808 5808 5807 5807 5806 5806 5805 5804 5803 5803 5803 5804 5805 5806 5807 5809 5810 5811 5812 5813 5814 5815 5816 5817 5818 5819 5819 5820 5822 5822 5823
5830 5829 5829 5829 5828 5827 5826 5826 5825 5824 5823 5823 5823 5824 5824 5824 5824 5825 5825 5823 5821 5821 5822 5821 5820 5820 5819 5818 5817 5817 5817 5817 5817 5818 5818 5819 5819 5819 5818 5816 5815 5814 5813 5812 5812 5811 5811 5811 5811 5810 5810 5809 5809 5808 5808 5808 5807 5807 5806 5806 5806 5805 5804 5803 5803 5803 5803 5804 5805 5806 5808 5809 5810 5811 5812 5813 5814 5815 5816 5816 5817 5818 5819 5820 5821 5821
5829 5829 5828 5828 5827 5826 5825 5825 5824 5823 5822 5822 5822 5823 5824 5823 5823 5823 5823 5821 5820 5820 5820 5819 5817 5817 5817 5816 5816 5816 5815 5815 5815 5815 5816 5817 5817 5818 5817 5815 5814 5814 5813 5812 5811 5810 5810 5810 5810 5809 5809 5809 5808 5808 5807 5807 5807 5807 5806 5806 5805 5805 5804 5804 5803 5803 5803 5803 5804 5805 5806 5807 5808 5809 5811 5812 5813 5813 5814 5815 5816 5817 5818 5819 5819 5820
5828 5827 5827 5826 5826 5825 5824 5823 5822 5822 5821 5821 5821 5821 5822 5822 5821 5821 5820 5819 5818 5818 5818 5817 5815 5815 5815 5814 5814 5814 5812 5812 5813 5813 5814 5815 5816 5816 5815 5814 5814 5813 5812 5811 5810 5809 5810 5810 5809 5809 5808 5808 5807 5807 5806 5806 5806 5806 5806 5805 5805 5805 5805 5804 5804 5803 5803 5803 5804 5804 5805 5805 5806 5807 5809 5810 5811 5811 5812 5813 5814 5816 5817 5818 5818 5819
5825 5825 5825 5825 5824 5823 5822 5821 5821 5820 5820 5820 5820 5820 5820 5819 5819 5819 5818 5817 5817 5817 5817 5816 5814 5813 5813 5813 5812 5811 5810 5810 5811 5811 5812 5813 5814 5815 5814 5814 5814 5814 5812 5811 5810 5809 5809 5809 5809 5808 5808 5807 5807 5807 5806 5806 5805 5805 5805 5805 5804 5805 5805 5805 5805 5804 5803 5803 5803 5804 5804 5804 5805 5806 5807 5808 5809 5810 5811 5812 5813 5814 5816 5817 5818 5818
5823 5824 5823 5823 5822 5821 5820 5819 5819 5818 5818 5819 5819 5818 5818 5818 5817 5817 5817 5816 5816 5815 5816 5816 5814 5812 5811 5812 5811 5809 5809 5809 5809 5809 5810 5811 5812 5813 5813 5813 5814 5813 5812 5811 5810 5809 5808 5808 5808 5808 5807 5807 5806 5806 5805 5805 5805 5804 5804 5804 5804 5804 5804 5804 5805 5805 5804 5804 5804 5804 5804 5804 5804 5805 5805 5806 5807 5808 5809 5810 5811 5813 5814 5816 5817 5818
5821 5822 5821 5820 5819 5819 5819 5818 5817 5816 5816 5818 5817 5816 5816 5816 5816 5815 5815 5814 5814 5813 5814 5815 5814 5810 5809 5810 5810 5808 5807 5807 5807 5808 5808 5809 5810 5811 5811 5811 5812 5812 5811 5811 5810 5809 5808 5807 5807 5807 5807 5806 5806 5805 5805 5804 5804 5804 5803 5803 5803 5803 5803 5803 5804 5804 5805 5805 5805 5805 5805 5804 5804 5804 5805 5805 5806 5806 5807 5808 5809 5811 5812 5814 5815 5816
5818 5818 5817 5817 5817 5817 5817 5816 5815 5815 5815 5816 5815 5814 5814 5813 5813 5813 5812 5812 5812 5811 5812 5814 5812 5809 5808 5809 5808 5807 5805 5805 5805 5806 5806 5807 5808 5808 5808 5809 5810 5810 5810 5810 5809 5808 5807 5806 5806 5806 5806 5806 5805 5805 5804 5803 5802 5802 5802 5802 5802 5802 5802 5802 5803 5803 5804 5804 5805 5805 5804 5804 5804 5804 5804 5805 5805 5805 5806 5807 5808 5809 5810 5811 5813 5815
5815 5814 5813 5814 5815 5814 5814 5814 5814 5813 5813 5813 5812 5811 5812 5811 5811 5811 5810 5810 5809 5810 5811 5812 5810 5807 5806 5807 5806 5805 5804 5803 5803 5804 5804 5805 5806 5806 5806 5807 5808 5808 5809 5809 5809 5808 5807 5806 5805 5805 5805 5805 5804 5804 5803 5802 5802 5801 5801 5801 5801 5801 5802 5802 5802 5803 5803 5803 5804 5804 5804 5804 5804 5804 5804 5804 5804 5804 5805 5806 5807 5807 5808 5809 5810 5812
5810 5810 5810 5810 5811 5811 5810 5810 5811 5811 5811 5810 5809 5809 5809 5809 5809 5809 5808 5808 5807 5808 5809 5809 5808 5805 5804 5805 5804 5802 5802 5801 5801 5802 5802 5803 5804 5804 5804 5805 5806 5806 5807 5807 5807 5807 5806 5805 5804 5804 5804 5804 5803 5803 5802 5802 5801 5801 5800 5800 5800 5801 5801 5802 5802 5802 5802 5802 5803 5803 5803 5803 5804 5803 5804 5804 5804 5804 5804 5805 5805 5806 5806 5807 5807 5809
5805 5807 5807 5807 5807 5807 5806 5807 5808 5808 5808 5808 5807 5807 5806 5806 5806 5806 5806 5806 5805 5806 5808 5807 5805 5802 5802 5803 5801 5800 5800 5799 5798 5799 5800 5801 5802 5802 5803 5803 5804 5805 5805 5805 5805 5805 5805 5805 5804 5803 5802 5802 5802 5801 5800 5800 5800 5800 5800 5800 5800 5800 5801 5801 5801 5801 5801 5801 5801 5802 5802 5803 5803 5803 5802 5803 5803 5803 5803 5804 5804 5804 5804 5804 5805 5806
5800 5802 5803 5803 5803 5803 5803 5803 5805 5805 5805 5805 5805 5803 5802 5803 5802 5802 5803 5803 5803 5804 5805 5804 5801 5798 5799 5800 5799 5799 5799 5798 5797 5797 5798 5799 5800 5800 5801 5801 5803 5804 5804 5804 5804 5804 5804 5804 5803 5802 5801 5801 5800 5799 5799 5799 5799 5799 5799 5799 5799 5799 5799 5798 5798 5798 5799 5799 5800 5800 5801 5801 5801 5801 5801 5801 5801 5801 5801 5802 5802 5802 5802 5802 5802 5803
5795 5796 5800 5799 5798 5799 5798 5798 5801 5802 5801 5801 5801 5800 5798 5799 5799 5798 5799 5800 5800 5801 5801 5801 5798 5796 5796 5797 5797 5797 5796 5796 5796 5796 5796 5797 5798 5798 5799 5800 5801 5802 5803 5803 5803 5803 5803 5802 5801 5801 5800 5800 5799 5798 5797 5797 5797 5798 5798 5798 5797 5797 5796 5796 5796 5796 5797 5797 5798 5798 5798 5799 5799 5800 5799 5799 5800 5800 5799 5799 5799 5799 5799 5799 5799 5801
5791 5792 5796 5795 5793 5794 5793 5793 5796 5796 5796 5796 5797 5795 5794 5796 5797 5795 5795 5797 5797 5795 5796 5797 5795 5794 5794 5794 5794 5795 5794 5794 5794 5794 5795 5796 5796 5797 5797 5798 5799 5800 5801 5801 5801 5801 5801 5801 5801 5800 5799 5799 5798 5797 5796 5796 5796 5796 5796 5796 5795 5795 5794 5794 5794 5795 5795 5795 5796 5796 5796 5797 5797 5797 5797 5797 5798 5798 5798 5797 5797 5796 5796 5797 5798 5799
5786 5788 5791 5790 5789 5790 5789 5789 5791 5790 5791 5793 5792 5791 5792 5794 5793 5791 5790 5792 5793 5790 5790 5793 5793 5792 5792 5790 5791 5792 5793 5793 5792 5792 5793 5793 5794 5795 5795 5795 5796 5797 5799 5799 5799 5799 5799 5799 5799 5799 5798 5798 5797 5796 5796 5796 5795 5795 5794 5794 5794 5793 5793 5793 5793 5793 5793 5793 5794 5794 5795 5795 5795 5795 5795 5795 5795 5796 5796 5795 5795 5794 5794 5795 5796 5796
5781 5781 5784 5786 5786 5786 5786 5785 5785 5785 5787 5788 5787 5789 5791 5789 5788 5787 5786 5787 5787 5785 5786 5789 5790 5790 5789 5787 5788 5790 5791 5791 5791 5791 5791 5791 5791 5792 5792 5793 5793 5794 5795 5796 5797 5797 5797 5797 5796 5796 5796 5796 5795 5795 5795 5795 5794 5794 5793 5792 5792 5792 5791 5791 5791 5791 5791 5791 5792 5792 5793 5793 5793 5793 5793 5793 5793 5793 5793 5793 5792 5792 5793 5792 5792 5792
5775 5773 5776 5780 5782 5782 5782 5780 5779 5780 5782 5783 5785 5786 5786 5784 5783 5783 5782 5782 5783 5782 5782 5785 5786 5786 5786 5785 5785 5787 5789 5790 5790 5790 5789 5789 5789 5789 5790 5790 5790 5791 5792 5793 5794 5794 5794 5794 5794 5793 5793 5793 5793 5793 5793 5794 5793 5793 5792 5791 5791 5790 5790 5790 5790 5790 5790 5790 5790 5790 5790 5790 5790 5790 5790 5790 5790 5791 5791 5790 5790 5790 5790 5790 5788 5789
5769 5767 5767 5771 5775 5778 5776 5774 5774 5776 5777 5779 5781 5781 5780 5779 5779 5779 5778 5778 5779 5779 5778 5780 5781 5781 5783 5784 5783 5784 5786 5787 5787 5787 5787 5787 5787 5788 5788 5789 5789 5789 5789 5789 5790 5791 5792 5791 5791 5790 5790 5790 5790 5790 5791 5791 5791 5791 5791 5790 5790 5789 5789 5789 5789 5789 5788 5788 5788 5788 5788 5788 5788 5787 5787 5787 5787 5788 5788 5787 5787 5787 5787 5786 5785 5785
5762 5761 5760 5763 5766 5768 5769 5770 5771 5773 5773 5774 5774 5775 5776 5776 5776 5775 5775 5774 5774 5775 5775 5775 5775 5777 5781 5781 5781 5782 5783 5783 5783 5784 5785 5785 5785 5786 5787 5787 5787 5787 5786 5787 5788 5789 5789 5788 5788 5788 5787 5787 5787 5787 5788 5788 5788 5789 5789 5788 5788 5788 5788 5788 5787 5787 5786 5786 5786 5785 5785 5785 5785 5785 5784 5784 5784 5784 5785 5784 5784 5784 5784 5783 5782 5781
5756 5756 5755 5757 5758 5758 5761 5767 5769 5769 5769 5770 5769 5769 5771 5773 5772 5771 5770 5770 5770 5770 5771 5771 5770 5772 5777 5778 5777 5778 5779 5779 5780 5780 5781 5782 5782 5783 5784 5784 5784 5784 5784 5785 5785 5786 5785 5785 5785 5785 5785 5785 5784 5784 5785 5786 5786 5786 5786 5786 5786 5786 5786 5786 5786 5785 5784 5784 5783 5782 5782 5782 5781 5781 5781 5781 5781 5781 5781 5781 5781 5781 5781 5781 5780 5779
5750 5751 5751 5752 5753 5753 5754 5757 5761 5764 5764 5765 5764 5765 5766 5767 5768 5767 5766 5767 5768 5766 5767 5767 5766 5768 5772 5774 5774 5774 5775 5775 5775 5776 5777 5778 5778 5779 5780 5781 5782 5782 5782 5781 5782 5782 5782 5782 5782 5782 5782 5782 5782 5782 5783 5783 5783 5783 5783 5783 5783 5784 5784 5784 5783 5782 5782 5781 5780 5779 5779 5778 5778 5778 5778 5778 5778 5778 5778 5777 5777 5777 5778 5778 5778 5778
5744 5745 5745 5746 5748 5750 5750 5749 5752 5756 5758 5758 5759 5760 5761 5760 5762 5763 5763 5765 5764 5762 5763 5762 5760 5762 5768 5770 5770 5770 5770 5771 5771 5772 5773 5773 5773 5773 5774 5776 5778 5779 5779 5778 5778 5779 5779 5779 5780 5780 5780 5780 5780 5780 5780 5780 5780 5781 5781 5781 5780 5781 5781 5781 5780 5780 5779 5778 5778 5777 5776 5775 5775 5775 5774 5774 5774 5774 5774 5774 5774 5775 5775 5775 5775 5775
5739 5738 5739 5740 5742 5745 5747 5747 5746 5748 5752 5754 5754 5755 5756 5756 5757 5758 5759 5759 5757 5757 5760 5758 5755 5757 5762 5765 5766 5765 5766 5767 5767 5768 5768 5768 5768 5768 5769 5771 5772 5774 5775 5775 5775 5775 5775 5776 5777 5777 5778 5778 5778 5778 5778 5777 5777 5777 5778 5777 5777 5777 5778 5778 5778 5777 5777 5776 5775 5774 5773 5773 5772 5772 5771 5771 5771 5770 5770 5770 5771 5772 5772 5772 5771 5771
5732 5731 5732 5733 5735 5738 5741 5743 5743 5743 5745 5747 5749 5749 5750 5752 5752 5752 5753 5752 5750 5751 5755 5754 5753 5754 5756 5760 5763 5762 5761 5763 5763 5764 5764 5764 5763 5764 5764 5766 5767 5768 5770 5770 5770 5770 5770 5771 5773 5773 5774 5775 5775 5775 5775 5775 5774 5774 5774 5774 5774 5775 5775 5774 5774 5774 5773 5772 5771 5771 5770 5770 5769 5769 5768 5767 5766 5766 5766 5766 5766 5767 5767 5768 5768 5767
5725 5725 5727 5726 5725 5729 5733 5735 5737 5737 5736 5737 5741 5744 5744 5745 5746 5745 5746 5745 5744 5746 5748 5749 5751 5752 5752 5755 5759 5758 5757 5758 5759 5760 5761 5760 5760 5760 5761 5762 5763 5764 5765 5766 5766 5767 5767 5769 5770 5770 5771 5772 5773 5773 5772 5772 5772 5772 5772 5772 5772 5772 5772 5772 5771 5771 5770 5769 5768 5767 5767 5766 5766 5765 5764 5763 5762 5762 5761 5761 5762 5762 5762 5762 5764 5764
5717 5718 5719 5717 5717 5721 5725 5727 5728 5728 5728 5729 5732 5735 5737 5738 5738 5738 5738 5739 5740 5740 5740 5744 5748 5749 5748 5751 5754 5754 5753 5754 5754 5755 5756 5756 5756 5756 5757 5758 5759 5761 5762 5762 5763 5763 5765 5767 5768 5768 5769 5769 5769 5769 5769 5768 5769 5769 5770 5769 5769 5769 5770 5770 5769 5768 5767 5766 5765 5764 5764 5763 5763 5762 5760 5759 5758 5758 5757 5757 5757 5758 5757 5758 5759 5761
5708 5709 5710 5708 5709 5714 5716 5718 5719 5719 5720 5721 5723 5727 5730 5731 5731 5731 5732 5733 5734 5733 5734 5739 5743 5745 5746 5747 5748 5749 5750 5750 5749 5750 5751 5751 5751 5752 5752 5753 5754 5756 5757 5758 5758 5760 5761 5763 5764 5765 5765 5765 5765 5765 5764 5765 5765 5765 5766 5766 5766 5766 5766 5767 5767 5766 5764 5763 5762 5761 5761 5760 5759 5759 5757 5756 5754 5754 5753 5753 5753 5753 5754 5754 5754 5756
5698 5700 5701 5699 5701 5706 5708 5709 5710 5710 5710 5712 5716 5719 5723 5724 5724 5725 5726 5727 5728 5728 5730 5733 5736 5739 5742 5743 5742 5744 5746 5747 5746 5746 5746 5746 5746 5747 5747 5748 5749 5750 5752 5753 5754 5755 5757 5758 5759 5760 5760 5761 5760 5760 5759 5760 5761 5761 5761 5761 5762 5762 5763 5763 5764 5763 5762 5760 5759 5759 5758 5757 5756 5756 5754 5753 5751 5751 5750 5750 5750 5750 5751 5751 5751 5752
5688 5690 5692 5690 5690 5696 5700 5699 5700 5700 5699 5702 5707 5711 5715 5717 5717 5718 5719 5721 5721 5722 5725 5727 5729 5733 5736 5737 5738 5739 5740 5742 5743 5742 5742 5742 5742 5742 5742 5742 5743 5744 5747 5748 5749 5751 5753 5754 5754 5754 5755 5755 5755 5755 5755 5756 5757 5757 5757 5757 5758 5758 5759 5760 5760 5760 5759 5757 5756 5756 5755 5754 5753 5752 5751 5750 5748 5748 5748 5748 5748 5748 5748 5748 5748 5748
5680 5680 5682 5681 5678 5684 5691 5689 5687 5690 5689 5690 5697 5704 5709 5710 5710 5711 5712 5713 5715 5717 5719 5721 5724 5727 5730 5731 5733 5734 5734 5736 5738 5738 5738 5738 5738 5737 5738 5738 5738 5740 5742 5743 5744 5746 5748 5749 5750 5750 5750 5750 5750 5750 5751 5752 5753 5754 5753 5753 5754 5754 5755 5756 5757 5756 5755 5754 5753 5753 5752 5751 5750 5749 5748 5747 5746 5745 5745 5745 5745 5745 5745 5745 5744 5744
5674 5672 5673 5672 5666 5671 5681 5678 5676 5678 5675 5678 5690 5698 5699 5700 5702 5704 5705 5706 5708 5710 5711 5713 5718 5722 5723 5724 5727 5729 5729 5730 5732 5733 5733 5734 5734 5733 5734 5734 5734 5735 5738 5739 5739 5741 5743 5744 5745 5746 5746 5746 5746 5747 5747 5748 5749 5750 5750 5749 5749 5750 5751 5752 5753 5753 5752 5750 5749 5749 5749 5748 5747 5746 5745 5744 5743 5742 5742 5742 5742 5742 5741 5741 5741 5741
5666 5664 5665 5664 5658 5660 5669 5669 5665 5662 5660 5670 5686 5690 5686 5688 5693 5695 5696 5699 5702 5703 5704 5707 5711 5714 5715 5717 5720 5723 5724 5724 5725 5726 5728 5729 5729 5729 5729 5729 5729 5730 5733 5734 5734 5735 5737 5739 5741 5741 5742 5742 5743 5743 5744 5744 5745 5745 5746 5745 5745 5746 5746 5747 5749 5749 5749 5747 5746 5746 5746 5746 5744 5743 5741 5741 5740 5739 5738 5738 5738 5737 5737 5737 5737 5737
5656 5657 5657 5657 5653 5653 5660 5661 5651 5646 5653 5669 5680 5679 5677 5680 5684 5685 5686 5691 5694 5695 5697 5700 5703 5706 5708 5710 5712 5715 5717 5718 5719 5720 5721 5723 5724 5724 5724 5724 5724 5726 5727 5728 5729 5730 5731 5734 5735 5737 5738 5738 5739 5740 5740 5740 5741 5741 5741 5742 5742 5742 5742 5743 5745 5746 5745 5745 5743 5742 5742 5742 5741 5740 5738 5737 5736 5736 5735 5734 5733 5733 5733 5733 5733 5733
5647 5648 5648 5648 5646 5647 5652 5650 5641 5639 5651 5663 5668 5669 5671 5674 5675 5677 5678 5682 5686 5688 5690 5693 5696 5699 5701 5703 5705 5706 5708 5710 5711 5712 5714 5716 5718 5719 5719 5719 5719 5720 5722 5723 5723 5724 5726 5728 5730 5731 5733 5734 5735 5736 5736 5736 5736 5737 5737 5737 5738 5738 5738 5739 5740 5741 5741 5741 5740 5739 5739 5739 5737 5736 5735 5733 5733 5732 5731 5730 5729 5728 5728 5729 5729 5729
5639 5639 5639 5639 5639 5641 5643 5641 5637 5636 5641 5651 5659 5663 5665 5665 5668 5670 5670 5674 5680 5681 5682 5686 5689 5690 5692 5695 5696 5698 5699 5701 5702 5704 5708 5711 5712 5713 5713 5713 5713 5714 5716 5718 5718 5719 5721 5724 5726 5726 5728 5729 5730 5731 5731 5731 5731 5732 5732 5733 5734 5734 5735 5735 5735 5736 5737 5737 5736 5735 5735 5735 5734 5733 5731 5730 5729 5728 5727 5726 5725 5724 5724 5725 5725 5726
5632 5632 5632 5630 5631 5635 5634 5633 5633 5630 5632 5645 5656 5659 5658 5657 5660 5662 5660 5663 5673 5676 5675 5678 5680 5681 5684 5686 5687 5688 5690 5691 5693 5698 5703 5705 5706 5707 5707 5708 5708 5709 5710 5712 5714 5715 5716 5719 5721 5721 5722 5724 5725 5725 5726 5726 5726 5727 5727 5728 5729 5730 5731 5731 5730 5730 5731 5732 5732 5731 5731 5731 5730 5729 5727 5726 5725 5724 5723 5722 5721 5721 5721 5722 5722 5723
5626 5625 5625 5623 5624 5628 5627 5625 5626 5623 5628 5643 5651 5650 5649 5649 5652 5653 5649 5652 5664 5669 5668 5669 5671 5673 5675 5677 5678 5680 5681 5682 5686 5693 5697 5697 5697 5699 5700 5700 5702 5703 5705 5707 5708 5709 5710 5712 5714 5715 5716 5718 5718 5719 5720 5720 5721 5722 5722 5723 5724 5725 5726 5726 5726 5726 5726 5727 5727 5727 5727 5727 5726 5725 5724 5722 5721 5720 5719 5719 5718 5718 5718 5719 5719 5718
5619 5619 5620 5618 5618 5621 5619 5618 5618 5618 5625 5639 5643 5640 5640 5642 5643 5641 5638 5645 5656 5659 5659 5662 5663 5664 5667 5669 5670 5672 5674 5677 5683 5687 5688 5688 5689 5691 5692 5693 5694 5696 5698 5700 5701 5701 5703 5705 5707 5708 5709 5711 5712 5713 5714 5714 5715 5716 5717 5718 5719 5720 5720 5721 5721 5721 5721 5722 5723 5723 5723 5723 5722 5721 5720 5718 5717 5715 5715 5715 5715 5715 5715 5715 5715 5714
5613 5613 5613 5613 5613 5614 5613 5613 5612 5612 5621 5633 5634 5631 5631 5632 5629 5626 5631 5644 5649 5646 5648 5654 5656 5657 5660 5660 5662 5666 5670 5673 5676 5677 5677 5679 5681 5683 5685 5686 5686 5687 5689 5692 5694 5695 5695 5697 5700 5701 5702 5704 5705 5706 5707 5708 5708 5710 5711 5712 5713 5713 5714 5715 5716 5717 5717 5717 5718 5718 5718 5718 5718 5717 5716 5715 5714 5712 5711 5711 5711 5711 5711 5711 5711 5711
5607 5607 5607 5608 5609 5609 5609 5608 5606 5607 5617 5625 5624 5621 5621 5618 5617 5621 5632 5640 5638 5634 5638 5644 5647 5650 5653 5654 5657 5661 5664 5665 5667 5668 5670 5671 5674 5676 5677 5678 5679 5680 5682 5684 5687 5688 5688 5690 5693 5694 5695 5697 5698 5699 5701 5702 5702 5703 5704 5706 5707 5707 5708 5709 5710 5711 5712 5712 5713 5713 5713 5713 5713 5712 5711 5711 5710 5708 5708 5708 5707 5707 5707 5707 5707 5707
5601 5601 5601 5603 5604 5603 5602 5603 5602 5604 5612 5615 5612 5612 5611 5610 5613 5620 5626 5627 5627 5629 5632 5635 5639 5643 5645 5648 5652 5654 5656 5658 5659 5661 5663 5664 5666 5668 5670 5671 5672 5674 5676 5678 5679 5680 5680 5682 5685 5687 5687 5688 5690 5692 5694 5695 5696 5696 5697 5699 5701 5701 5702 5703 5704 5706 5706 5707 5707 5707 5707 5707 5707 5707 5707 5706 5706 5705 5704 5704 5704 5703 5703 5702 5702 5702
5596 5596 5596 5597 5598 5597 5596 5597 5599 5601 5603 5604 5604 5606 5606 5607 5611 5614 5616 5618 5622 5624 5625 5628 5632 5636 5639 5642 5645 5647 5649 5651 5652 5653 5655 5656 5658 5661 5663 5665 5666 5666 5669 5671 5672 5673 5674 5675 5677 5679 5680 5681 5682 5685 5687 5688 5690 5691 5691 5693 5694 5695 5696 5697 5698 5699 5700 5701 5701 5702 5701 5701 5701 5701 5701 5701 5702 5701 5700 5700 5700 5699 5699 5699 5698 5698
5590 5591 5591 5590 5591 5591 5590 5593 5596 5596 5596 5596 5598 5600 5602 5603 5605 5607 5609 5612 5615 5617 5620 5622 5625 5629 5633 5636 5639 5641 5644 5645 5645 5647 5648 5649 5652 5655 5656 5659 5660 5660 5661 5663 5664 5666 5667 5668 5670 5672 5673 5674 5676 5678 5680 5681 5683 5684 5685 5686 5688 5688 5689 5691 5692 5693 5694 5695 5695 5696 5696 5696 5696 5696 5696 5696 5696 5696 5696 5695 5695 5695 5695 5694 5694 5693
5585 5585 5584 5584 5585 5585 5585 5588 5591 5591 5591 5591 5592 5593 5595 5597 5599 5600 5603 5605 5608 5611 5614 5615 5618 5622 5626 5630 5633 5636 5638 5639 5640 5640 5641 5643 5645 5648 5650 5652 5653 5653 5654 5655 5657 5659 5660 5662 5663 5664 5666 5667 5669 5671 5673 5675 5676 5678 5679 5680 5681 5681 5683 5684 5685 5687 5688 5689 5690 5690 5691 5691 5691 5691 5690 5690 5690 5690 5690 5690 5690 5689 5689 5689 5689 5688
5580 5579 5578 5578 5580 5580 5580 5584 5586 5585 5586 5587 5587 5588 5590 5591 5593 5595 5597 5599 5602 5604 5605 5608 5611 5615 5618 5623 5627 5629 5630 5633 5634 5635 5636 5637 5638 5640 5642 5644 5645 5646 5647 5649 5651 5652 5654 5656 5657 5658 5659 5661 5662 5664 5666 5668 5669 5671 5672 5673 5674 5675 5676 5678 5679 5680 5681 5683 5684 5684 5685 5685 5685 5685 5685 5684 5684 5684 5684 5684 5684 5684 5683 5683 5683 5683
5573 5573 5573 5573 5575 5575 5576 5577 5579 5579 5581 5583 5583 5584 5586 5586 5588 5590 5591 5593 5596 5597 5598 5602 5605 5607 5611 5616 5619 5621 5623 5626 5627 5629 5631 5632 5632 5634 5635 5637 5639 5640 5641 5643 5644 5646 5648 5650 5651 5652 5653 5654 5655 5657 5659 5660 5662 5664 5666 5667 5667 5669 5670 5672 5672 5673 5674 5676 5677 5678 5678 5679 5679 5680 5680 5680 5679 5678 5678 5678 5678 5678 5678 5678 5677 5677
5566 5566 5568 5568 5569 5571 5572 5572 5572 5573 5576 5579 5579 5579 5581 5582 5583 5585 5587 5588 5590 5592 5594 5597 5599 5601 5604 5608 5611 5614 5617 5618 5620 5623 5625 5626 5628 5629 5630 5631 5633 5634 5636 5637 5639 5640 5642 5643 5644 5646 5647 5648 5649 5651 5652 5654 5656 5658 5659 5660 5661 5662 5663 5664 5665 5667 5668 5669 5671 5672 5672 5673 5674 5675 5675 5675 5674 5673 5673 5672 5672 5672 5672 5672 5672 5671
5561 5561 5562 5562 5563 5567 5568 5568 5568 5569 5571 5574 5575 5575 5576 5578 5579 5580 5581 5583 5585 5587 5589 5591 5593 5595 5597 5600 5604 5608 5611 5613 5615 5616 5618 5621 5623 5624 5625 5626 5627 5628 5630 5632 5633 5635 5636 5637 5638 5640 5641 5642 5643 5645 5646 5647 5648 5650 5653 5654 5655 5656 5657 5658 5659 5661 5662 5664 5665 5666 5667 5667 5668 5669 5669 5669 5669 5668 5668 5667 5667 5667 5667 5666 5666 5665
5555 5555 5556 5556 5559 5562 5563 5563 5564 5566 5567 5569 5570 5570 5572 5573 5574 5575 5577 5578 5580 5582 5584 5586 5588 5590 5592 5595 5597 5601 5604 5606 5608 5610 5613 5615 5617 5618 5619 5621 5622 5623 5624 5626 5627 5629 5630 5631 5633 5634 5635 5636 5637 5639 5640 5641 5641 5643 5646 5647 5648 5649 5651 5653 5654 5655 5656 5657 5658 5659 5661 5662 5662 5663 5663 5663 5663 5663 5662 5662 5662 5662 5662 5662 5661 5660